Location: ???????
(55.3754°N, 39.3545°E)
Time: 01:06:18
(UTC+00:00)

Cosmos 2369 Rocket - Pass Details

Date: 14 April 2026
Orbit: 829 x 850 km, 71.0° (Epoch: 20 May)

Event Time Altitude Azimuth Distance (km) Brightness Sun altitude
Rises 20:26:23 0° 322° (NW) 3,386 6.5 -23.9°
Reaches altitude 10° 20:29:02 10° 313° (NW) 2,447 5.4 -24.0°
Maximum altitude 20:33:55 32° 253° (WSW) 1,403 3.3 -24.2°
Enters shadow 20:34:46 30° 235° (SW) 1,445 3.2 -24.2°
